Year,Month,Day,Hour,Minute,Value (Times are PST for windspeed in km/hr)
2008,08,31,00,00,3.60
2008,08,31,00,01,5.00
2008,08,31,00,02,4.00
2008,08,31,00,03,4.00
2008,08,31,00,04,6.90
2008,08,31,00,05,7.70
2008,08,31,00,06,7.00
2008,08,31,00,07,6.20
2008,08,31,00,08,7.70
2008,08,31,00,09,6.90
2008,08,31,00,10,6.40
2008,08,31,00,11,7.20
2008,08,31,00,12,5.30
2008,08,31,00,13,7.80
2008,08,31,00,14,7.30
2008,08,31,00,15,6.80
2008,08,31,00,16,5.10
2008,08,31,00,17,3.60
2008,08,31,00,18,5.20
2008,08,31,00,19,6.00
2008,08,31,00,20,8.60
2008,08,31,00,21,6.20
2008,08,31,00,22,7.40
2008,08,31,00,23,7.50
2008,08,31,00,24,8.40
2008,08,31,00,25,8.10
2008,08,31,00,26,8.10
2008,08,31,00,27,8.10
2008,08,31,00,28,8.60
2008,08,31,00,29,4.50
2008,08,31,00,30,5.00
2008,08,31,00,31,7.80
2008,08,31,00,32,5.60
2008,08,31,00,33,6.00
2008,08,31,00,34,5.40
2008,08,31,00,35,3.80
2008,08,31,00,36,5.90
2008,08,31,00,37,5.20
2008,08,31,00,38,3.60
2008,08,31,00,39,2.60
2008,08,31,00,40,7.00
2008,08,31,00,41,7.30
2008,08,31,00,42,5.10
2008,08,31,00,43,3.70
2008,08,31,00,44,4.20
2008,08,31,00,45,3.30
2008,08,31,00,46,4.30
2008,08,31,00,47,5.80
2008,08,31,00,48,6.80
2008,08,31,00,49,4.10
2008,08,31,00,50,4.70
2008,08,31,00,51,4.20
2008,08,31,00,52,4.20
2008,08,31,00,53,6.00
2008,08,31,00,54,8.00
2008,08,31,00,55,8.00
2008,08,31,00,56,7.10
2008,08,31,00,57,6.10
2008,08,31,00,58,5.70
2008,08,31,00,59,5.20
2008,08,31,01,00,9.00
2008,08,31,01,01,7.30
2008,08,31,01,02,7.80
2008,08,31,01,03,7.90
2008,08,31,01,04,5.50
2008,08,31,01,05,5.90
2008,08,31,01,06,5.30
2008,08,31,01,07,2.30
2008,08,31,01,08,2.70
2008,08,31,01,09,3.20
2008,08,31,01,10,5.10
2008,08,31,01,11,4.60
2008,08,31,01,12,4.70
2008,08,31,01,13,3.60
2008,08,31,01,14,1.30
2008,08,31,01,15,1.90
2008,08,31,01,16,2.30
2008,08,31,01,17,2.50
2008,08,31,01,18,2.10
2008,08,31,01,19,2.30
2008,08,31,01,20,1.20
2008,08,31,01,21,1.90
2008,08,31,01,22,2.60
2008,08,31,01,23,3.20
2008,08,31,01,24,3.40
2008,08,31,01,25,2.70
2008,08,31,01,26,2.10
2008,08,31,01,27,1.80
2008,08,31,01,28,1.30
2008,08,31,01,29,1.80
2008,08,31,01,30,1.10
2008,08,31,01,31,1.20
2008,08,31,01,32,2.30
2008,08,31,01,33,0.80
2008,08,31,01,34,2.90
2008,08,31,01,35,2.30
2008,08,31,01,36,2.10
2008,08,31,01,37,2.00
2008,08,31,01,38,1.60
2008,08,31,01,39,1.80
2008,08,31,01,40,1.40
2008,08,31,01,41,1.30
2008,08,31,01,42,3.30
2008,08,31,01,43,3.20
2008,08,31,01,44,2.10
2008,08,31,01,45,2.40
2008,08,31,01,46,0.90
2008,08,31,01,47,1.20
2008,08,31,01,48,2.70
2008,08,31,01,49,1.60
2008,08,31,01,50,1.50
2008,08,31,01,51,0.40
2008,08,31,01,52,0.70
2008,08,31,01,53,0.00
2008,08,31,01,54,0.00
2008,08,31,01,55,0.00
2008,08,31,01,56,1.10
2008,08,31,01,57,0.30
2008,08,31,01,58,0.30
2008,08,31,01,59,3.50
2008,08,31,02,00,0.50
2008,08,31,02,01,0.00
2008,08,31,02,02,0.00
2008,08,31,02,03,3.10
2008,08,31,02,04,0.00
2008,08,31,02,05,0.10
2008,08,31,02,06,0.20
2008,08,31,02,07,1.90
2008,08,31,02,08,0.50
2008,08,31,02,09,1.00
2008,08,31,02,10,2.10
2008,08,31,02,11,1.00
2008,08,31,02,12,2.00
2008,08,31,02,13,3.20
2008,08,31,02,14,0.90
2008,08,31,02,15,0.20
2008,08,31,02,16,3.40
2008,08,31,02,17,1.20
2008,08,31,02,18,0.00
2008,08,31,02,19,1.00
2008,08,31,02,20,0.20
2008,08,31,02,21,1.00
2008,08,31,02,22,0.20
2008,08,31,02,23,0.00
2008,08,31,02,24,0.00
2008,08,31,02,25,0.60
2008,08,31,02,26,1.80
2008,08,31,02,27,0.70
2008,08,31,02,28,0.00
2008,08,31,02,29,1.00
2008,08,31,02,30,0.20
2008,08,31,02,31,0.00
2008,08,31,02,32,0.00
2008,08,31,02,33,0.00
2008,08,31,02,34,0.00
2008,08,31,02,35,0.00
2008,08,31,02,36,0.00
2008,08,31,02,37,0.00
2008,08,31,02,38,0.00
2008,08,31,02,39,0.00
2008,08,31,02,40,0.00
2008,08,31,02,41,0.00
2008,08,31,02,42,0.00
2008,08,31,02,43,0.00
2008,08,31,02,44,0.10
2008,08,31,02,45,0.70
2008,08,31,02,46,0.20
2008,08,31,02,47,0.10
2008,08,31,02,48,0.10
2008,08,31,02,49,0.00
2008,08,31,02,50,0.00
2008,08,31,02,51,0.00
2008,08,31,02,52,0.00
2008,08,31,02,53,0.00
2008,08,31,02,54,0.00
2008,08,31,02,55,0.20
2008,08,31,02,56,0.10
2008,08,31,02,57,0.00
2008,08,31,02,58,0.20
2008,08,31,02,59,0.10
2008,08,31,03,00,0.00
2008,08,31,03,01,0.00
2008,08,31,03,02,0.00
2008,08,31,03,03,0.00
2008,08,31,03,04,0.00
2008,08,31,03,05,0.00
2008,08,31,03,06,0.00
2008,08,31,03,07,0.00
2008,08,31,03,08,0.00
2008,08,31,03,09,0.00
2008,08,31,03,10,0.00
2008,08,31,03,11,0.00
2008,08,31,03,12,0.00
2008,08,31,03,13,0.30
2008,08,31,03,14,2.30
2008,08,31,03,15,1.80
2008,08,31,03,16,1.20
2008,08,31,03,17,1.40
2008,08,31,03,18,2.70
2008,08,31,03,19,3.60
2008,08,31,03,20,1.50
2008,08,31,03,21,1.90
2008,08,31,03,22,2.00
2008,08,31,03,23,1.30
2008,08,31,03,24,0.10
2008,08,31,03,25,0.10
2008,08,31,03,26,0.10
2008,08,31,03,27,3.00
2008,08,31,03,28,2.60
2008,08,31,03,29,0.30
2008,08,31,03,30,0.00
2008,08,31,03,31,0.00
2008,08,31,03,32,0.10
2008,08,31,03,33,1.60
2008,08,31,03,34,1.20
2008,08,31,03,35,0.30
2008,08,31,03,36,0.00
2008,08,31,03,37,1.50
2008,08,31,03,38,0.40
2008,08,31,03,39,1.30
2008,08,31,03,40,2.60
2008,08,31,03,41,0.20
2008,08,31,03,42,0.20
2008,08,31,03,43,0.10
2008,08,31,03,44,0.00
2008,08,31,03,45,0.00
2008,08,31,03,46,0.10
2008,08,31,03,47,0.00
2008,08,31,03,48,0.00
2008,08,31,03,49,0.00
2008,08,31,03,50,0.10
2008,08,31,03,51,2.10
2008,08,31,03,52,1.90
2008,08,31,03,53,1.40
2008,08,31,03,54,0.10
2008,08,31,03,55,1.10
2008,08,31,03,56,0.90
2008,08,31,03,57,1.40
2008,08,31,03,58,2.20
2008,08,31,03,59,2.20
2008,08,31,04,00,1.30
2008,08,31,04,01,1.70
2008,08,31,04,02,1.30
2008,08,31,04,03,1.90
2008,08,31,04,04,0.10
2008,08,31,04,05,0.10
2008,08,31,04,06,0.00
2008,08,31,04,07,0.00
2008,08,31,04,08,0.80
2008,08,31,04,09,1.30
2008,08,31,04,10,0.10
2008,08,31,04,11,0.00
2008,08,31,04,12,0.00
2008,08,31,04,13,0.00
2008,08,31,04,14,0.40
2008,08,31,04,15,0.00
2008,08,31,04,16,0.00
2008,08,31,04,17,0.00
2008,08,31,04,18,0.00
2008,08,31,04,19,0.00
2008,08,31,04,20,0.00
2008,08,31,04,21,0.00
2008,08,31,04,22,0.00
2008,08,31,04,23,0.00
2008,08,31,04,24,0.00
2008,08,31,04,25,0.00
2008,08,31,04,26,0.00
2008,08,31,04,27,0.20
2008,08,31,04,28,0.90
2008,08,31,04,29,1.70
2008,08,31,04,30,1.60
2008,08,31,04,31,0.70
2008,08,31,04,32,0.10
2008,08,31,04,33,0.10
2008,08,31,04,34,0.00
2008,08,31,04,35,0.00
2008,08,31,04,36,0.00
2008,08,31,04,37,0.00
2008,08,31,04,38,0.00
2008,08,31,04,39,0.00
2008,08,31,04,40,0.00
2008,08,31,04,41,0.00
2008,08,31,04,42,0.00
2008,08,31,04,43,0.00
2008,08,31,04,44,0.00
2008,08,31,04,45,0.00
2008,08,31,04,46,0.00
2008,08,31,04,47,0.10
2008,08,31,04,48,1.60
2008,08,31,04,49,0.20
2008,08,31,04,50,0.00
2008,08,31,04,51,0.40
2008,08,31,04,52,0.00
2008,08,31,04,53,0.10
2008,08,31,04,54,1.20
2008,08,31,04,55,0.80
2008,08,31,04,56,0.00
2008,08,31,04,57,0.00
2008,08,31,04,58,0.00
2008,08,31,04,59,0.00
2008,08,31,05,00,0.00
2008,08,31,05,01,0.50
2008,08,31,05,02,0.10
2008,08,31,05,03,0.10
2008,08,31,05,04,1.10
2008,08,31,05,05,1.10
2008,08,31,05,06,1.40
2008,08,31,05,07,1.20
2008,08,31,05,08,1.40
2008,08,31,05,09,0.50
2008,08,31,05,10,1.20
2008,08,31,05,11,0.90
2008,08,31,05,12,1.30
2008,08,31,05,13,1.90
2008,08,31,05,14,1.00
2008,08,31,05,15,1.20
2008,08,31,05,16,1.60
2008,08,31,05,17,1.70
2008,08,31,05,18,3.20
2008,08,31,05,19,3.60
2008,08,31,05,20,2.80
2008,08,31,05,21,2.70
2008,08,31,05,22,2.60
2008,08,31,05,23,2.80
2008,08,31,05,24,2.50
2008,08,31,05,25,0.40
2008,08,31,05,26,1.40
2008,08,31,05,27,1.90
2008,08,31,05,28,1.50
2008,08,31,05,29,0.30
2008,08,31,05,30,0.10
2008,08,31,05,31,0.60
2008,08,31,05,32,2.70
2008,08,31,05,33,3.50
2008,08,31,05,34,2.20
2008,08,31,05,35,2.40
2008,08,31,05,36,3.80
2008,08,31,05,37,2.60
2008,08,31,05,38,0.00
2008,08,31,05,39,0.00
2008,08,31,05,40,0.00
2008,08,31,05,41,1.50
2008,08,31,05,42,2.10
2008,08,31,05,43,0.60
2008,08,31,05,44,0.20
2008,08,31,05,45,0.10
2008,08,31,05,46,0.00
2008,08,31,05,47,1.30
2008,08,31,05,48,2.50
2008,08,31,05,49,0.10
2008,08,31,05,50,0.90
2008,08,31,05,51,2.60
2008,08,31,05,52,1.70
2008,08,31,05,53,0.00
2008,08,31,05,54,1.20
2008,08,31,05,55,2.30
2008,08,31,05,56,2.50
2008,08,31,05,57,1.60
2008,08,31,05,58,0.70
2008,08,31,05,59,0.70
2008,08,31,06,00,0.00
2008,08,31,06,01,0.00
2008,08,31,06,02,0.00
2008,08,31,06,03,2.00
2008,08,31,06,04,2.00
2008,08,31,06,05,0.20
2008,08,31,06,06,0.90
2008,08,31,06,07,1.50
2008,08,31,06,08,2.20
2008,08,31,06,09,0.90
2008,08,31,06,10,0.00
2008,08,31,06,11,0.00
2008,08,31,06,12,0.00
2008,08,31,06,13,0.00
2008,08,31,06,14,0.00
2008,08,31,06,15,0.00
2008,08,31,06,16,0.70
2008,08,31,06,17,1.60
2008,08,31,06,18,1.10
2008,08,31,06,19,0.90
2008,08,31,06,20,0.30
2008,08,31,06,21,0.00
2008,08,31,06,22,0.10
2008,08,31,06,23,0.00
2008,08,31,06,24,0.10
2008,08,31,06,25,1.80
2008,08,31,06,26,0.70
2008,08,31,06,27,0.00
2008,08,31,06,28,0.00
2008,08,31,06,29,0.00
2008,08,31,06,30,0.00
2008,08,31,06,31,0.00
2008,08,31,06,32,0.00
2008,08,31,06,33,0.40
2008,08,31,06,34,0.00
2008,08,31,06,35,0.00
2008,08,31,06,36,0.60
2008,08,31,06,37,1.30
2008,08,31,06,38,3.50
2008,08,31,06,39,1.30
2008,08,31,06,40,0.20
2008,08,31,06,41,0.30
2008,08,31,06,42,0.30
2008,08,31,06,43,0.00
2008,08,31,06,44,0.60
2008,08,31,06,45,0.80
2008,08,31,06,46,0.70
2008,08,31,06,47,0.90
2008,08,31,06,48,0.00
2008,08,31,06,49,0.20
2008,08,31,06,50,1.40
2008,08,31,06,51,0.80
2008,08,31,06,52,0.00
2008,08,31,06,53,0.30
2008,08,31,06,54,1.50
2008,08,31,06,55,1.00
2008,08,31,06,56,0.10
2008,08,31,06,57,0.00
2008,08,31,06,58,0.00
2008,08,31,06,59,0.00
2008,08,31,07,00,0.00
2008,08,31,07,01,0.00
2008,08,31,07,02,0.00
2008,08,31,07,03,0.00
2008,08,31,07,04,0.00
2008,08,31,07,05,0.00
2008,08,31,07,06,0.00
2008,08,31,07,07,0.00
2008,08,31,07,08,0.00
2008,08,31,07,09,0.00
2008,08,31,07,10,0.00
2008,08,31,07,11,0.00
2008,08,31,07,12,0.00
2008,08,31,07,13,0.20
2008,08,31,07,14,0.00
2008,08,31,07,15,0.00
2008,08,31,07,16,0.00
2008,08,31,07,17,0.60
2008,08,31,07,18,1.20
2008,08,31,07,19,0.00
2008,08,31,07,20,0.00
2008,08,31,07,21,0.00
2008,08,31,07,22,0.00
2008,08,31,07,23,0.00
2008,08,31,07,24,0.00
2008,08,31,07,25,0.00
2008,08,31,07,26,0.00
2008,08,31,07,27,0.00
2008,08,31,07,28,0.00
2008,08,31,07,29,0.00
2008,08,31,07,30,0.00
2008,08,31,07,31,0.00
2008,08,31,07,32,0.00
2008,08,31,07,33,0.20
2008,08,31,07,34,0.00
2008,08,31,07,35,0.00
2008,08,31,07,36,0.00
2008,08,31,07,37,0.00
2008,08,31,07,38,0.00
2008,08,31,07,39,0.00
2008,08,31,07,40,0.00
2008,08,31,07,41,0.00
2008,08,31,07,42,0.00
2008,08,31,07,43,0.00
2008,08,31,07,44,1.60
2008,08,31,07,45,0.10
2008,08,31,07,46,0.10
2008,08,31,07,47,0.10
2008,08,31,07,48,0.00
2008,08,31,07,49,0.00
2008,08,31,07,50,0.00
2008,08,31,07,51,0.00
2008,08,31,07,52,1.40
2008,08,31,07,53,1.90
2008,08,31,07,54,1.60
2008,08,31,07,55,1.60
2008,08,31,07,56,1.60
2008,08,31,07,57,1.60
2008,08,31,07,58,2.10
2008,08,31,07,59,2.40
2008,08,31,08,00,3.10
2008,08,31,08,01,1.70
2008,08,31,08,02,0.80
2008,08,31,08,03,0.90
2008,08,31,08,04,1.40
2008,08,31,08,05,0.40
2008,08,31,08,06,0.10
2008,08,31,08,07,0.00
2008,08,31,08,08,0.00
2008,08,31,08,09,0.00
2008,08,31,08,10,0.00
2008,08,31,08,11,0.30
2008,08,31,08,12,0.00
2008,08,31,08,13,0.00
2008,08,31,08,14,0.00
2008,08,31,08,15,0.10
2008,08,31,08,16,0.30
2008,08,31,08,17,0.00
2008,08,31,08,18,0.00
2008,08,31,08,19,0.00
2008,08,31,08,20,0.50
2008,08,31,08,21,0.00
2008,08,31,08,22,0.00
2008,08,31,08,23,0.00
2008,08,31,08,24,0.00
2008,08,31,08,25,0.20
2008,08,31,08,26,0.10
2008,08,31,08,27,0.50
2008,08,31,08,28,0.90
2008,08,31,08,29,0.00
2008,08,31,08,30,0.00
2008,08,31,08,31,0.00
2008,08,31,08,32,0.00
2008,08,31,08,33,0.00
2008,08,31,08,34,0.00
2008,08,31,08,35,0.00
2008,08,31,08,36,0.00
2008,08,31,08,37,0.00
2008,08,31,08,38,0.10
2008,08,31,08,39,0.00
2008,08,31,08,40,0.00
2008,08,31,08,41,0.00
2008,08,31,08,42,1.30
2008,08,31,08,43,0.60
2008,08,31,08,44,0.00
2008,08,31,08,45,0.30
2008,08,31,08,46,0.40
2008,08,31,08,47,1.30
2008,08,31,08,48,0.10
2008,08,31,08,49,0.10
2008,08,31,08,50,1.60
2008,08,31,08,51,1.40
2008,08,31,08,52,4.10
2008,08,31,08,53,1.90
2008,08,31,08,54,1.60
2008,08,31,08,55,1.50
2008,08,31,08,56,1.00
2008,08,31,08,57,0.30
2008,08,31,08,58,0.40
2008,08,31,08,59,0.00
2008,08,31,09,00,0.70
2008,08,31,09,01,1.80
2008,08,31,09,02,0.50
2008,08,31,09,03,0.80
2008,08,31,09,04,0.20
2008,08,31,09,05,0.00
2008,08,31,09,06,0.00
2008,08,31,09,07,0.30
2008,08,31,09,08,0.90
2008,08,31,09,09,0.40
2008,08,31,09,10,1.50
2008,08,31,09,11,1.30
2008,08,31,09,12,0.30
2008,08,31,09,13,0.40
2008,08,31,09,14,0.00
2008,08,31,09,15,0.20
2008,08,31,09,16,0.60
2008,08,31,09,17,0.40
2008,08,31,09,18,0.30
2008,08,31,09,19,0.70
2008,08,31,09,20,0.00
2008,08,31,09,21,0.10
2008,08,31,09,22,0.00
2008,08,31,09,23,0.10
2008,08,31,09,24,0.80
2008,08,31,09,25,0.80
2008,08,31,09,26,0.80
2008,08,31,09,27,1.10
2008,08,31,09,28,1.40
2008,08,31,09,29,0.50
2008,08,31,09,30,1.20
2008,08,31,09,31,0.20
2008,08,31,09,32,0.00
2008,08,31,09,33,0.80
2008,08,31,09,34,2.30
2008,08,31,09,35,1.00
2008,08,31,09,36,1.40
2008,08,31,09,37,1.30
2008,08,31,09,38,1.70
2008,08,31,09,39,1.60
2008,08,31,09,40,0.30
2008,08,31,09,41,2.40
2008,08,31,09,42,3.70
2008,08,31,09,43,4.10
2008,08,31,09,44,1.70
2008,08,31,09,45,1.60
2008,08,31,09,46,1.90
2008,08,31,09,47,5.00
2008,08,31,09,48,4.70
2008,08,31,09,49,2.30
2008,08,31,09,50,3.80
2008,08,31,09,51,2.80
2008,08,31,09,52,3.00
2008,08,31,09,53,6.00
2008,08,31,09,54,6.20
2008,08,31,09,55,6.50
2008,08,31,09,56,9.30
2008,08,31,09,57,6.30
2008,08,31,09,58,4.40
2008,08,31,09,59,3.80
2008,08,31,10,00,3.90
2008,08,31,10,01,6.40
2008,08,31,10,02,6.00
2008,08,31,10,03,8.90
2008,08,31,10,04,10.10
2008,08,31,10,05,6.60
2008,08,31,10,06,4.90
2008,08,31,10,07,5.40
2008,08,31,10,08,6.30
2008,08,31,10,09,0.60
2008,08,31,10,10,5.70
2008,08,31,10,11,3.80
2008,08,31,10,12,5.90
2008,08,31,10,13,8.30
2008,08,31,10,14,4.10
2008,08,31,10,15,8.30
2008,08,31,10,16,7.70
2008,08,31,10,17,11.30
2008,08,31,10,18,10.30
2008,08,31,10,19,8.60
2008,08,31,10,20,13.90
2008,08,31,10,21,9.00
2008,08,31,10,22,11.30
2008,08,31,10,23,11.30
2008,08,31,10,24,8.40
2008,08,31,10,25,12.00
2008,08,31,10,26,10.90
2008,08,31,10,27,2.90
2008,08,31,10,28,5.80
2008,08,31,10,29,15.40
2008,08,31,10,30,13.80
2008,08,31,10,31,17.00
2008,08,31,10,32,13.20
2008,08,31,10,33,11.80
2008,08,31,10,34,10.70
2008,08,31,10,35,9.90
2008,08,31,10,36,17.40
2008,08,31,10,37,17.90
2008,08,31,10,38,15.40
2008,08,31,10,39,16.40
2008,08,31,10,40,12.70
2008,08,31,10,41,15.40
2008,08,31,10,42,20.60
2008,08,31,10,43,18.00
2008,08,31,10,44,20.20
2008,08,31,10,45,13.10
2008,08,31,10,46,8.90
2008,08,31,10,47,10.40
2008,08,31,10,48,14.60
2008,08,31,10,49,15.20
2008,08,31,10,50,9.80
2008,08,31,10,51,14.20
2008,08,31,10,52,11.30
2008,08,31,10,53,9.70
2008,08,31,10,54,10.70
2008,08,31,10,55,11.20
2008,08,31,10,56,17.10
2008,08,31,10,57,16.30
2008,08,31,10,58,11.90
2008,08,31,10,59,9.60
2008,08,31,11,00,9.60
2008,08,31,11,01,12.40
2008,08,31,11,02,22.90
2008,08,31,11,03,16.00
2008,08,31,11,04,13.90
2008,08,31,11,05,16.60
2008,08,31,11,06,8.60
2008,08,31,11,07,16.00
2008,08,31,11,08,13.90
2008,08,31,11,09,7.80
2008,08,31,11,10,7.50
2008,08,31,11,11,10.70
2008,08,31,11,12,17.10
2008,08,31,11,13,9.30
2008,08,31,11,14,15.40
2008,08,31,11,15,14.30
2008,08,31,11,16,10.70
2008,08,31,11,17,15.70
2008,08,31,11,18,8.60
2008,08,31,11,19,11.50
2008,08,31,11,20,8.00
2008,08,31,11,21,5.00
2008,08,31,11,22,9.30
2008,08,31,11,23,7.00
2008,08,31,11,24,10.20
2008,08,31,11,25,6.30
2008,08,31,11,26,5.60
2008,08,31,11,27,11.40
2008,08,31,11,28,11.40
2008,08,31,11,29,14.20
2008,08,31,11,30,10.90
2008,08,31,11,31,8.90
2008,08,31,11,32,9.00
2008,08,31,11,33,7.80
2008,08,31,11,34,5.30
2008,08,31,11,35,10.30
2008,08,31,11,36,3.60
2008,08,31,11,37,5.10
2008,08,31,11,38,3.80
2008,08,31,11,39,5.20
2008,08,31,11,40,2.70
2008,08,31,11,41,7.20
2008,08,31,11,42,7.30
2008,08,31,11,43,8.10
2008,08,31,11,44,12.30
2008,08,31,11,45,6.60
2008,08,31,11,46,5.40
2008,08,31,11,47,2.80
2008,08,31,11,48,7.50
2008,08,31,11,49,8.30
2008,08,31,11,50,4.60
2008,08,31,11,51,3.80
2008,08,31,11,52,3.30
2008,08,31,11,53,4.70
2008,08,31,11,54,2.20
2008,08,31,11,55,3.10
2008,08,31,11,56,1.00
2008,08,31,11,57,1.80
2008,08,31,11,58,2.40
2008,08,31,11,59,5.20
2008,08,31,12,00,2.30
2008,08,31,12,01,3.80
2008,08,31,12,02,8.00
2008,08,31,12,03,7.80
2008,08,31,12,04,5.10
2008,08,31,12,05,1.00
2008,08,31,12,06,2.80
2008,08,31,12,07,3.10
2008,08,31,12,08,5.30
2008,08,31,12,09,4.90
2008,08,31,12,10,1.60
2008,08,31,12,11,1.60
2008,08,31,12,12,1.60
2008,08,31,12,13,3.00
2008,08,31,12,14,3.70
2008,08,31,12,15,0.80
2008,08,31,12,16,1.30
2008,08,31,12,17,1.60
2008,08,31,12,18,3.10
2008,08,31,12,19,2.20
2008,08,31,12,20,2.90
2008,08,31,12,21,4.00
2008,08,31,12,22,3.00
2008,08,31,12,23,2.50
2008,08,31,12,24,2.20
2008,08,31,12,25,3.30
2008,08,31,12,26,1.30
2008,08,31,12,27,5.70
2008,08,31,12,28,6.40
2008,08,31,12,29,4.40
2008,08,31,12,30,8.60
2008,08,31,12,31,8.80
2008,08,31,12,32,6.20
2008,08,31,12,33,12.80
2008,08,31,12,34,8.80
2008,08,31,12,35,6.50
2008,08,31,12,36,9.30
2008,08,31,12,37,5.60
2008,08,31,12,38,3.10
2008,08,31,12,39,6.20
2008,08,31,12,40,9.40
2008,08,31,12,41,10.00
2008,08,31,12,42,10.60
2008,08,31,12,43,7.80
2008,08,31,12,44,8.30
2008,08,31,12,45,8.80
2008,08,31,12,46,11.60
2008,08,31,12,47,10.30
2008,08,31,12,48,8.60
2008,08,31,12,49,3.10
2008,08,31,12,50,4.00
2008,08,31,12,51,8.20
2008,08,31,12,52,6.00
2008,08,31,12,53,5.20
2008,08,31,12,54,2.80
2008,08,31,12,55,7.30
2008,08,31,12,56,8.40
2008,08,31,12,57,2.40
2008,08,31,12,58,5.60
2008,08,31,12,59,3.00
2008,08,31,13,00,4.70
2008,08,31,13,01,6.10
2008,08,31,13,02,6.00
2008,08,31,13,03,4.20
2008,08,31,13,04,1.70
2008,08,31,13,05,7.60
2008,08,31,13,06,8.60
2008,08,31,13,07,6.50
2008,08,31,13,08,6.80
2008,08,31,13,09,9.40
2008,08,31,13,10,7.60
2008,08,31,13,11,7.60
2008,08,31,13,12,5.20
2008,08,31,13,13,4.10
2008,08,31,13,14,4.80
2008,08,31,13,15,7.20
2008,08,31,13,16,9.00
2008,08,31,13,17,8.90
2008,08,31,13,18,9.10
2008,08,31,13,19,10.10
2008,08,31,13,20,8.30
2008,08,31,13,21,9.80
2008,08,31,13,22,11.30
2008,08,31,13,23,9.10
2008,08,31,13,24,6.60
2008,08,31,13,25,3.80
2008,08,31,13,26,7.20
2008,08,31,13,27,11.30
2008,08,31,13,28,13.30
2008,08,31,13,29,9.20
2008,08,31,13,30,7.70
2008,08,31,13,31,5.70
2008,08,31,13,32,7.60
2008,08,31,13,33,5.30
2008,08,31,13,34,2.90
2008,08,31,13,35,9.50
2008,08,31,13,36,7.00
2008,08,31,13,37,6.80
2008,08,31,13,38,11.70
2008,08,31,13,39,9.80
2008,08,31,13,40,7.70
2008,08,31,13,41,8.40
2008,08,31,13,42,16.40
2008,08,31,13,43,9.40
2008,08,31,13,44,7.40
2008,08,31,13,45,3.90
2008,08,31,13,46,8.50
2008,08,31,13,47,10.50
2008,08,31,13,48,10.00
2008,08,31,13,49,10.80
2008,08,31,13,50,6.10
2008,08,31,13,51,7.20
2008,08,31,13,52,6.30
2008,08,31,13,53,10.60
2008,08,31,13,54,10.90
2008,08,31,13,55,10.50
2008,08,31,13,56,5.80
2008,08,31,13,57,8.60
2008,08,31,13,58,5.60
2008,08,31,13,59,4.80
2008,08,31,14,00,5.20
2008,08,31,14,01,8.30
2008,08,31,14,02,10.30
2008,08,31,14,03,8.40
2008,08,31,14,04,7.70
2008,08,31,14,05,13.10
2008,08,31,14,06,11.10
2008,08,31,14,07,9.50
2008,08,31,14,08,12.40
2008,08,31,14,09,11.40
2008,08,31,14,10,6.40
2008,08,31,14,11,7.50
2008,08,31,14,12,6.60
2008,08,31,14,13,4.80
2008,08,31,14,14,1.20
2008,08,31,14,15,3.50
2008,08,31,14,16,6.60
2008,08,31,14,17,12.60
2008,08,31,14,18,11.20
2008,08,31,14,19,13.10
2008,08,31,14,20,11.30
2008,08,31,14,21,10.60
2008,08,31,14,22,11.90
2008,08,31,14,23,10.80
2008,08,31,14,24,5.70
2008,08,31,14,25,12.60
2008,08,31,14,26,10.60
2008,08,31,14,27,7.10
2008,08,31,14,28,5.40
2008,08,31,14,29,6.60
2008,08,31,14,30,4.30
2008,08,31,14,31,4.00
2008,08,31,14,32,9.20
2008,08,31,14,33,5.40
2008,08,31,14,34,15.00
2008,08,31,14,35,7.70
2008,08,31,14,36,8.50
2008,08,31,14,37,9.50
2008,08,31,14,38,7.90
2008,08,31,14,39,5.20
2008,08,31,14,40,8.60
2008,08,31,14,41,8.20
2008,08,31,14,42,6.40
2008,08,31,14,43,5.80
2008,08,31,14,44,6.40
2008,08,31,14,45,6.40
2008,08,31,14,46,6.40
2008,08,31,14,47,6.40
2008,08,31,14,48,6.40
2008,08,31,14,49,7.90
2008,08,31,14,50,9.40
2008,08,31,14,51,9.90
2008,08,31,14,52,11.20
2008,08,31,14,53,8.20
2008,08,31,14,54,9.20
2008,08,31,14,55,4.90
2008,08,31,14,56,4.80
2008,08,31,14,57,3.90
2008,08,31,14,58,5.80
2008,08,31,14,59,2.40
2008,08,31,15,00,7.60
2008,08,31,15,01,10.10
2008,08,31,15,02,7.20
2008,08,31,15,03,4.80
2008,08,31,15,04,5.30
2008,08,31,15,05,5.10
2008,08,31,15,06,1.60
2008,08,31,15,07,8.10
2008,08,31,15,08,5.90
2008,08,31,15,09,7.20
2008,08,31,15,10,7.90
2008,08,31,15,11,8.90
2008,08,31,15,12,6.00
2008,08,31,15,13,11.20
2008,08,31,15,14,8.70
2008,08,31,15,15,3.40
2008,08,31,15,16,3.10
2008,08,31,15,17,4.80
2008,08,31,15,18,7.70
2008,08,31,15,19,8.10
2008,08,31,15,20,6.80
2008,08,31,15,21,8.60
2008,08,31,15,22,8.20
2008,08,31,15,23,9.10
2008,08,31,15,24,6.90
2008,08,31,15,25,8.30
2008,08,31,15,26,6.10
2008,08,31,15,27,7.70
2008,08,31,15,28,6.50
2008,08,31,15,29,4.10
2008,08,31,15,30,6.70
2008,08,31,15,31,7.40
2008,08,31,15,32,6.10
2008,08,31,15,33,9.80
2008,08,31,15,34,6.10
2008,08,31,15,35,6.20
2008,08,31,15,36,5.10
2008,08,31,15,37,9.60
2008,08,31,15,38,9.00
2008,08,31,15,39,8.00
2008,08,31,15,40,9.70
2008,08,31,15,41,6.30
2008,08,31,15,42,5.80
2008,08,31,15,43,7.00
2008,08,31,15,44,2.90
2008,08,31,15,45,7.30
2008,08,31,15,46,7.20
2008,08,31,15,47,3.60
2008,08,31,15,48,4.10
2008,08,31,15,49,5.60
2008,08,31,15,50,4.40
2008,08,31,15,51,7.20
2008,08,31,15,52,7.50
2008,08,31,15,53,9.40
2008,08,31,15,54,11.20
2008,08,31,15,55,9.70
2008,08,31,15,56,11.20
2008,08,31,15,57,9.00
2008,08,31,15,58,3.50
2008,08,31,15,59,3.50
2008,08,31,16,00,6.00
2008,08,31,16,01,4.20
2008,08,31,16,02,2.50
2008,08,31,16,03,4.20
2008,08,31,16,04,1.00
2008,08,31,16,05,4.10
2008,08,31,16,06,9.90
2008,08,31,16,07,4.30
2008,08,31,16,08,5.20
2008,08,31,16,09,6.80
2008,08,31,16,10,8.90
2008,08,31,16,11,5.10
2008,08,31,16,12,6.70
2008,08,31,16,13,2.40
2008,08,31,16,14,9.20
2008,08,31,16,15,7.70
2008,08,31,16,16,6.40
2008,08,31,16,17,10.20
2008,08,31,16,18,7.30
2008,08,31,16,19,10.10
2008,08,31,16,20,6.40
2008,08,31,16,21,10.40
2008,08,31,16,22,7.40
2008,08,31,16,23,8.70
2008,08,31,16,24,6.40
2008,08,31,16,25,3.70
2008,08,31,16,26,2.50
2008,08,31,16,27,2.90
2008,08,31,16,28,4.60
2008,08,31,16,29,8.00
2008,08,31,16,30,8.80
2008,08,31,16,31,8.10
2008,08,31,16,32,2.70
2008,08,31,16,33,7.30
2008,08,31,16,34,5.20
2008,08,31,16,35,10.50
2008,08,31,16,36,9.20
2008,08,31,16,37,8.50
2008,08,31,16,38,6.90
2008,08,31,16,39,6.00
2008,08,31,16,40,9.00
2008,08,31,16,41,8.80
2008,08,31,16,42,7.90
2008,08,31,16,43,4.70
2008,08,31,16,44,7.70
2008,08,31,16,45,9.20
2008,08,31,16,46,6.00
2008,08,31,16,47,2.30
2008,08,31,16,48,3.30
2008,08,31,16,49,3.00
2008,08,31,16,50,5.80
2008,08,31,16,51,6.30
2008,08,31,16,52,7.20
2008,08,31,16,53,4.80
2008,08,31,16,54,4.80
2008,08,31,16,55,4.80
2008,08,31,16,56,6.40
2008,08,31,16,57,3.60
2008,08,31,16,58,4.70
2008,08,31,16,59,6.80
2008,08,31,17,00,9.50
2008,08,31,17,01,6.70
2008,08,31,17,02,7.00
2008,08,31,17,03,8.80
2008,08,31,17,04,4.60
2008,08,31,17,05,3.60
2008,08,31,17,06,5.10
2008,08,31,17,07,6.60
2008,08,31,17,08,2.70
2008,08,31,17,09,4.60
2008,08,31,17,10,4.10
2008,08,31,17,11,5.70
2008,08,31,17,12,6.00
2008,08,31,17,13,6.00
2008,08,31,17,14,3.60
2008,08,31,17,15,4.00
2008,08,31,17,16,8.50
2008,08,31,17,17,10.80
2008,08,31,17,18,3.20
2008,08,31,17,19,8.50
2008,08,31,17,20,15.50
2008,08,31,17,21,8.50
2008,08,31,17,22,9.90
2008,08,31,17,23,5.90
2008,08,31,17,24,5.70
2008,08,31,17,25,5.70
2008,08,31,17,26,7.50
2008,08,31,17,27,6.40
2008,08,31,17,28,5.50
2008,08,31,17,29,4.50
2008,08,31,17,30,6.20
2008,08,31,17,31,9.00
2008,08,31,17,32,2.90
2008,08,31,17,33,1.40
2008,08,31,17,34,7.80
2008,08,31,17,35,2.70
2008,08,31,17,36,3.60
2008,08,31,17,37,7.10
2008,08,31,17,38,4.70
2008,08,31,17,39,10.80
2008,08,31,17,40,14.00
2008,08,31,17,41,7.50
2008,08,31,17,42,11.70
2008,08,31,17,43,7.80
2008,08,31,17,44,9.10
2008,08,31,17,45,2.90
2008,08,31,17,46,7.60
2008,08,31,17,47,7.20
2008,08,31,17,48,6.00
2008,08,31,17,49,7.80
2008,08,31,17,50,7.10
2008,08,31,17,51,4.30
2008,08,31,17,52,4.80
2008,08,31,17,53,6.40
2008,08,31,17,54,9.70
2008,08,31,17,55,8.10
2008,08,31,17,56,7.30
2008,08,31,17,57,10.30
2008,08,31,17,58,10.30
2008,08,31,17,59,11.80
2008,08,31,18,00,4.30
2008,08,31,18,01,13.40